User: anonymous   Login
Location: Unspecified
(0.0000°N, 0.0000°E)
Time: 21:46:14
(UTC+00:00)
Language:

PLEIADES HR1 - Orbit

View from above orbital plane
View from above orbital plane
View from above satellite
View from above satellite

Ground track
Ground track

The orbit data is extracted from the following two-line orbital elements,

1 38012U 11076F   16338.41703339  .00000049  00000-0  20250-4 0  9996
2 38012  98.1855  50.3725 0001316  91.9651 268.1701 14.58563699264324
Epoch (UTC): 03 December 2016 10:00:31
Eccentricity: 0.0001316
inclination: 98.1855°
perigee height: 697 km
apogee height: 699 km
right ascension of ascending node: 50.3725°
argument of perigee: 91.9651°
revolutions per day: 14.58563699
mean anomaly at epoch: 268.1701°
orbit number at epoch: 26432

The dashed part of the orbit path shows where the satellite is in the earth's shadow,  

DLR